Погода в Витебске

Погода в Витебске : погода сейчас, прогноз погоды и архив. Всё, что Вы хотите узнать о погоде в Витебске!

Поиск расширенной информации на нашем сайте:

Другие новости

Новости СМИ2

Главная страница сайта

Новости сайта

03.07.2017

Напоминаем, что на нашем специализированном сайте Метеоцентр.Азия вы можете получить высокодетализированные автоматические прогнозы погоды по пунктам России, СНГ и мира в авиационном формате (включающие направление и скорость ветра, видимость, явления погоды, количество и форму облачности, нижнюю и верхнюю границу облачности).


Погода в Витебске - сегодня

Время (UTC), дата Ветер
(°,м/с) 
Видим.   Явления Облачность Т
(°С)
Тd
(°С)
f(%) Тe
(°С)
Pmin
(гПа)
dP
(гПа)
Po
(мм)
O2
(г/м3)
Тmin Tmax R s Состояние
почвы
06 14.10.18 240 (ЮЗ) 0200 м  туман  ?/?  
+7.7 +7.7 100 +9  1031.2  0.2  757  295  +6.9         
09 14.10.18 220 (ЮЗ) 2800 м  в посл. час туман  9/9 100 м 
[St]
+10.4 +9.8 96 +13  1031.5  0.5  758  292           
15 14.10.18 тихо ()   10 км    8/0 верхняя 
[Ci fib]
+15.7 +11.7 77 +19  1029.2  -0.9  756  286           
18 14.10.18 тихо ()   6000 м  дымка  ясно 
+10 +9.2 95 +10  1029.5  -0.1  756  292    +17.8       
21 14.10.18 тихо ()   3500 м  дымка  ясно 
+7.4 +6.7 95 +7  1029.9  0.1  756  296           
00 15.10.18 210 (ЮЗ) 7000 м  дымка  ясно 
+10.1 +9 93 +11  1029.6  756  292           
03 15.10.18 210 (ЮЗ) 5000 м  дымка  ясно 
+8.9 +8.1 95 +10  1029.3  -0.4  756  294           
06 15.10.18 тихо ()   4500 м  дымка  3/0 верхняя 
[Ci fib]
+4.7 +4.2 97 +5  1030  0.4  756  299  +4.1         
09 15.10.18 240 (ЮЗ) 10 км    3/0 верхняя 
[Ci fib]
+14.1 +5.9 58 +15  1029.5  0.2  756  289           
12 15.10.18 200 (Ю) 10 км    8/0 верхняя 
[Cs]
+18 +5.1 43 +19  1028.5  -0.7  756  285           
15 15.10.18 180 (Ю) 10 км    8/0 верхняя 
[Cs]
+15.4 +5 50 +17  1027.8  -0.9  755  287           
18 15.10.18 190 (Ю) 10 км    8/0 верхняя 
[Cs]
+12.7 +5 59 +14  1027.5  -0.4  755  290    +18.6       
21 15.10.18 220 (ЮЗ) 10 км    ясно 
+11.3 +4.6 63 +12  1027.3  -0.4  755  291           
00 16.10.18 200 (Ю) 10 км    ясно 
+9.8 +4.1 68 +11  1027.4  755  293           
03 16.10.18 180 (Ю) 10 км    ясно 
+8.6 +4 73 +10  1026.9  -0.5  754  294           
06 16.10.18 210 (ЮЗ) 10 км    6/0 верхняя 
[Ci fib]
+8.4 +3 69 +8  1026.7  -0.3  754  294  +7.6         
09 16.10.18 230 (ЮЗ) 10 км    4/0 верхняя 
[Ci fib]
+14.5 +5.5 55 +15  1026.2  754  288           
12 16.10.18 220 (ЮЗ) 10 км    3/0 верхняя 
[Ci fib]
+19.3 +5.1 39 +20  1025.1  -0.8  753  283           
15 16.10.18 тихо ()   10 км    3/0 верхняя 
[Ci fib]
+16.4 +6.4 52 +16  1024.9  -0.3  753  285           
18 16.10.18 220 (ЮЗ) 10 км    ясно 
+13.5 +7.1 65 +15  1025.2  753  288    +19.6       
21 16.10.18 220 (ЮЗ) 10 км    ясно 
+12.1 +7.4 73 +12  1025.5  0.2  753  289           
00 17.10.18 220 (ЮЗ) 10 км    ясно 
+11.6 +7.7 77 +12  1025.3  -0.2  753  290           
03 17.10.18 210 (ЮЗ) 10 км    ясно 
+9.8 +7.6 86 +11  1025.3  -0.2  753  292           
06 17.10.18 тихо ()   6000 м  дымка  ясно 
+5.8 +5.1 95 +6  1026.1  0.5  753  296  +5.6         
09 17.10.18 220 (ЮЗ) 10 км    ясно 
+14.7 +7.8 63 +16  1025.8  0.4  754  287           
Время (UTC), дата Ветер
(°,м/с) 
Видим.   Явления Облачность Т
(°С)
Тd
(°С)
f(%) Тe
(°С)
Pmin
(гПа)
dP
(гПа)
Po
(мм)
O2
(г/м3)
Тmin Tmax R s Состояние
почвы

Для получения пояснительной информации подведите курсор к названию столбца.

ПОГОДА в Витебске - архив

Всё, что Вы хотите узнать о погоде в Витебске - удобно и подробно!

Выберите нужную дату (начиная с 1 января 2015* года) и нажмите кнопку "Найти".
Будут отображены архивные сводки погоды по пункту Витебск, начиная с указанной даты.


Отображать данные в формате CSV (для использования в таблицах Excel)


Внимание! Наш архив погоды предназначен исключительно для личного некоммерческого использования в познавательных целях. Если Вам необходимы официальные справки о состоянии погоды (для производственных, юридических, коммерческих и т.п. целей), обращайтесь в органы Росгидромета.

*Примечание: данная дата относится к архиву по метеостанциям СССР (Россия, СНГ, Балтия).
Архив по метеостанциям Зарубежной Европы и Азии (кроме Китая) хранится 10 дней, по другим регионам земного шара (Китай, Африка, Америка, Австралия, Океания) - 1 день.

Витебск - район местоположения метеостанции


Название, широта, долгота, высота метеостанции:
Витебск (город) 55.1°ш. 30.3°д. 170 м над ур. моря [Беларусь]

Дополнительная информация

В oтличие oт бoльшинства пoгoдных сайтoв мы публикуем пoдрoбную метеoинфoрмацию в детальнoм прoфессиoнальнoм фoрмате.

Характеристики температуры и влажнoсти вoздуха измеряются на высoте 2 м в тени вдали oт зданий и деревьев.
Скoрoсть ветра измеряется на высoте 10 м (на урoвне рoста челoвека скoрoсть ветра ниже в 1.5-2 раза). Если метеoстанция нахoдится в гoрoде или в лесу, тo скoрoсть ветра занижена на 2-4 м/с пo сравнению с oткрытым местoм. Скoрoсть ветра над акватoриями крупных рек и oзёр, а также на вершинах хoлмoв на 2-5 м/с выше, чем в oбычных услoвиях.
Атмoсфернoе давление в разных тoчках местнoсти мoжет значительнo oтличаться oт давления на метеoстанции, в зависимoсти oт услoвий рельефа (при пoдъёме на 10 м давление пoнижается примернo на 1 мм рт.ст.).